SCOUT X-4 R/B, 871

Orbit data source: Space-Track

SCOUT X-4 R/B, 871 is space debris in LEO originally from a launch on Tue, 25 Aug 1964 UTC launched from the Air Force Western Test Range (AFWTR). Debris objects in space refer to the collection of defunct objects orbiting the Earth. Examples of debris include non-operational satellites, rocket bodies, and fragments generated from explosions, collisions, or faulty payload assembly.

Loading next visibility...
Identifier
871, 1964-051B
Orbit
LEO
Country
Flag of USUS
Related business
Manufacturer
ABL
Mission
Spacecraft
Bus & Motor
ALTAIR, Unknown motor
Mass
33 kg wet, 33 kg dry
Launch date (UTC)
1964-08-25 (61 years ago)
Launch vehicle
Unknown
Launch site
Air Force Western Test Range (AFWTR)
Object type
Payload
Rocket body
Debris
Shape & HBR
Cyl, 0.8 m
Radar Cross Section
0.687 m², Medium (>0.1 m² and < 1m²)

Expand to show TLE details & history
Last TLE update: 23 hours ago

TLE from 23 hours ago
0 SCOUT X-4 R/B
1 00871U 64051B   25242.15407960  .00000461  00000-0  29622-3 0  9994
2 00871  79.8945  29.3511 0086536 201.6982 158.0505 14.00504697104125
Epoch: 2025-08-30T03:41Z
TLE epoch observation values (Epoch: 2025-08-30T03:41:52.477Z)
Latitude
-0.00005°
Longitude
-4.71002°
Altitude
953.327 km
Speed
7.345 km/s
True Right ascension
01h 57m 24s
True Declination
0° 00' 00"
Sunlit
Object was in full shadow at epoch
Visualization orbit readout
Latitude
Unknown
Longitude
Unknown
Altitude
Unknown
Speed
Unknown
Apparent Right ascension
Unknown
Apparent Declination
Unknown
Sunlit
N/A
Visualization observer readout
Local Sidereal Time
18:31:24
Azimuth
Unknown
Elevation
Unknown
Doppler factor
Unknown
Orbital elements
Apogee altitude
952.193 km
Perigee altitude
826.414 km
Semi-major axis
7,267.441 km
Eccentricity
0.00865
Inclination
79.8945°
RAAN
29.3511°
Arg. of periapsis
201.6982°
True anomaly
158.41747°
Mean anomaly
158.0505°
Eccentric anomaly
158.23435°
Mean motion
3.50325 °/min
Orbital period
102.76 mins
BSTAR
0.00029622
Loading maneuver chart data...
Computing Atmospheric mass density...
Loading historical data...
Loading historical data...
Loading historical data...
Loading historical data...
Loading historical data...
Loading historical data...
Loading historical data...

Documentation

Showing up to 5 results
|